Weather History for KEAU - April, 2013

Change the Weather History Date:

Tuesday, April 9, 2013

  Actual Average Record
Temperature  
Mean Temperature 37 °F 43 °F  
Max Temperature 42 °F 54 °F 79 °F (1930)
Min Temperature 31 °F 32 °F 12 °F (1997)
Degree Days  
Heating Degree Days 28 22  
Month to date heating degree days 283 218  
Since 1 July heating degree days 7411 7283  
Cooling Degree Days 0 0  
Month to date cooling degree days 0 0  
Year to date cooling degree days 0 0  
Moisture  
Dew Point 34 °F    
Average Humidity 82    
Maximum Humidity 100    
Minimum Humidity 64    
Precipitation  
Precipitation 0.72 in 0.09 in 1.32 in (1922)
Month to date precipitation 1.36 0.72  
Year to date precipitation 6.75 4.15  
Snow  
Snow T in 0.10 in 7.90 in (1973)
Month to date snowfall 0.4 0.9  
Since 1 July snowfall 66.6 45.8  
Snow Depth T in    
Sea Level Pressure  
Sea Level Pressure 30.05 in    
Wind  
Wind Speed 9 mph (NE)    
Max Wind Speed 21 mph    
Max Gust Speed 26 mph    
Visibility 9 miles    
Events Rain , Snow    
T = Trace of Precipitation, MM = Missing Value Source: NWS Daily Summary

Daily Weather History Graph

Daily Weather History Graph

Search for Another Location

Airport or City:

Trip Planner

Search our weather history database for the weather conditions in past years. The results will help you decide how hot, cold, wet, or windy it might be!

Date:

Astronomy

Apr. 09, 2013 Rise Set
Actual Time 6:31 AM CDT 7:44 PM CDT
Civil Twilight 6:01 AM CDT 8:14 PM CDT
Nautical Twilight 5:25 AM CDT 8:50 PM CDT
Astronomical Twilight 4:47 AM CDT 9:28 PM CDT
Moon 5:55 AM CDT (4/9) 7:20 PM CDT (4/9)
Length of Visible Light 14h 12m
Length of Day
13h 12m
Waning Crescent, 1% of the Moon is Illuminated
Apr 9
Waning Crescent
Apr 10
New
Apr 18
First Quarter
Apr 25
Full
May 2
Last Quarter

Hourly Weather History & Observations

Time (CDT) Temp. Windchill Dew Point Humidity Pressure Visibility Wind Dir Wind Speed Gust Speed Precip Events Conditions
12:56 AM 39.0 °F 35.7 °F 37.0 °F 93% 30.05 in 8.0 mi NE 4.6 mph - N/A   Overcast
1:56 AM 37.9 °F 34.4 °F 37.0 °F 97% 30.04 in 9.0 mi NNE 4.6 mph - N/A   Overcast
2:42 AM 37.4 °F 32.8 °F 35.6 °F 93% 29.98 in 10.0 mi NE 5.8 mph - N/A   Overcast
2:56 AM 37.9 °F 32.7 °F 36.0 °F 93% 30.00 in 10.0 mi NE 6.9 mph - N/A   Overcast
3:56 AM 37.9 °F - 36.0 °F 93% 30.05 in 9.0 mi Calm Calm - N/A   Overcast
4:56 AM 37.0 °F 32.4 °F 36.0 °F 96% 30.04 in 9.0 mi North 5.8 mph - N/A   Overcast
5:56 AM 37.0 °F 31.0 °F 35.1 °F 93% 30.04 in 10.0 mi NNE 8.1 mph - N/A   Overcast
6:56 AM 37.0 °F 31.6 °F 35.1 °F 93% 30.05 in 10.0 mi NE 6.9 mph - 0.00 in   Overcast
7:56 AM 37.0 °F 31.0 °F 35.1 °F 93% 30.04 in 10.0 mi NE 8.1 mph - N/A   Overcast
8:56 AM 37.0 °F 29.3 °F 35.1 °F 93% 30.02 in 10.0 mi NE 11.5 mph - 0.00 in Rain Light Rain
9:56 AM 37.0 °F 28.9 °F 34.0 °F 89% 30.02 in 10.0 mi NNE 12.7 mph 18.4 mph 0.00 in   Overcast
10:56 AM 37.0 °F 31.0 °F 35.1 °F 93% 30.04 in 8.0 mi NE 8.1 mph - 0.02 in Rain Rain
11:56 AM 37.0 °F 31.0 °F 36.0 °F 96% 30.05 in 4.0 mi NNE 8.1 mph - N/A Rain Heavy Rain
12:56 PM 37.9 °F 30.0 °F 36.0 °F 93% 30.05 in 7.0 mi NNE 12.7 mph 18.4 mph 0.05 in Rain Rain
1:03 PM 37.4 °F 28.9 °F 35.6 °F 93% 30.02 in 7.0 mi NNE 13.8 mph - 0.00 in Rain Rain
1:13 PM 37.4 °F 29.3 °F 35.6 °F 93% 30.02 in 7.0 mi NNE 12.7 mph 23.0 mph N/A Rain Rain
1:49 PM 37.4 °F 29.3 °F 35.6 °F 93% 30.03 in 9.0 mi NE 12.7 mph 19.6 mph N/A Rain Light Rain
1:56 PM 37.9 °F 30.9 °F 36.0 °F 93% 30.06 in 9.0 mi NNE 10.4 mph - N/A Rain Light Rain
2:56 PM 39.9 °F 32.9 °F 37.0 °F 89% 30.05 in 10.0 mi NE 11.5 mph 21.9 mph 0.00 in Rain Light Rain
3:17 PM 39.2 °F 29.8 °F 35.6 °F 87% 30.02 in 10.0 mi NE 18.4 mph 24.2 mph 0.00 in Rain Light Rain
3:48 PM 41.0 °F 33.9 °F 35.6 °F 81% 30.02 in 10.0 mi NE 12.7 mph 23.0 mph 0.00 in Rain Light Rain
3:56 PM 41.0 °F 33.1 °F 36.0 °F 82% 30.04 in 10.0 mi NE 15.0 mph 20.7 mph 0.00 in Rain Light Rain
4:21 PM 42.8 °F 34.8 °F 35.6 °F 76% 30.02 in 10.0 mi NE 17.3 mph - 0.00 in   Overcast
4:43 PM 42.8 °F 35.1 °F 33.8 °F 70% 30.01 in 10.0 mi NE 16.1 mph 23.0 mph 0.00 in   Overcast
4:56 PM 41.0 °F 33.5 °F 33.1 °F 73% 30.05 in 10.0 mi NE 13.8 mph 21.9 mph 0.00 in   Overcast
5:56 PM 41.0 °F 35.2 °F 33.1 °F 73% 30.09 in 10.0 mi NE 9.2 mph - 0.00 in Rain Light Rain
6:56 PM 39.9 °F 34.5 °F 30.9 °F 70% 30.11 in 10.0 mi NE 8.1 mph - 0.00 in   Overcast
7:56 PM 39.0 °F 34.0 °F 30.9 °F 73% 30.10 in 10.0 mi NNE 6.9 mph - 0.00 in   Overcast
8:56 PM 37.9 °F 30.5 °F 26.1 °F 62% 30.07 in 10.0 mi NE 11.5 mph 26.5 mph N/A   Overcast
9:56 PM 37.0 °F 28.5 °F 26.1 °F 65% 30.09 in 10.0 mi ENE 13.8 mph 24.2 mph 0.00 in Rain Light Rain
10:56 PM 34.0 °F 28.0 °F 28.9 °F 82% 30.08 in 10.0 mi NE 6.9 mph - 0.04 in Rain Rain
11:56 PM 33.1 °F - 30.0 °F 89% 30.17 in 7.0 mi Calm Calm - 0.07 in Snow Light Snow